Theta_e
313 312 312 312 309 311 309 308 306 306 307 309 308 308 310 305 301 301 300 299 299 297 296 295 294 294 294 292 292 291 292 292 292 291 292 292 291 292 292 292 291 291 291 292
311 312 312 311 308 309 308 308 307 306 306 306 306 306 307 303 302 302 300 298 299 296 295 294 294 293 293 292 292 291 291 291 291 290 291 290 290 290 291 290 290 290 290 290
312 313 309 309 309 309 307 308 307 308 304 303 302 302 305 304 303 304 301 299 298 298 295 294 293 293 292 292 292 292 291 290 290 290 290 290 290 291 290 289 289 290 289 289
310 309 308 308 308 306 307 306 307 306 305 306 304 309 304 303 302 299 299 298 298 297 295 295 293 293 292 292 291 291 291 290 290 290 290 289 289 289 289 289 289 289 289 289
314 306 306 307 306 305 308 305 305 305 304 303 303 303 303 300 301 303 297 296 296 298 295 294 293 293 292 291 291 290 291 290 290 289 289 289 288 288 288 288 288 289 289 288
309 307 305 306 306 305 305 305 304 299 301 304 304 304 303 302 302 301 298 296 296 297 295 294 293 292 291 291 291 290 290 289 288 288 288 288 287 287 287 288 288 288 288 287
309 306 305 306 307 305 305 305 310 310 304 310 300 301 308 306 303 299 298 296 296 296 294 293 292 292 291 291 290 290 289 288 288 287 287 287 287 286 287 287 286 285 286 287
312 314 305 304 306 308 304 306 310 309 308 310 301 305 306 300 296 296 296 299 296 294 294 293 292 292 291 290 290 289 288 288 287 287 287 286 286 286 286 285 284 284 285 285
309 309 301 302 302 304 304 304 303 305 286 296 305 301 301 295 293 292 295 297 294 293 294 293 292 292 291 290 289 288 288 287 287 287 286 286 286 286 285 284 283 284 285 285
309 310 301 298 300 297 301 300 303 300 302 303 305 304 309 303 298 291 290 291 292 292 293 292 292 291 290 289 289 288 287 287 287 286 286 286 285 284 284 283 283 284 284 284
304 308 303 299 300 302 298 300 299 300 304 305 303 310 303 305 299 293 291 292 293 292 293 292 292 291 289 289 288 288 288 287 287 286 286 285 285 284 283 282 283 284 284 283
303 305 305 301 296 296 300 301 302 304 302 299 303 310 299 299 299 293 292 293 293 293 293 292 292 290 289 289 288 288 288 286 286 285 285 285 284 283 282 282 282 283 283 282
302 304 303 306 302 297 296 297 300 299 300 307 306 310 296 297 295 294 293 293 293 292 292 292 291 290 289 288 288 288 287 286 285 285 285 284 283 283 282 282 282 283 281 280
306 304 307 311 308 299 298 297 297 302 304 308 308 308 307 306 302 294 294 294 294 292 292 291 291 290 289 288 288 287 286 285 285 285 284 283 283 283 281 281 282 281 279 278
303 309 304 309 309 303 305 306 296 299 303 307 309 308 308 307 307 303 302 296 291 291 292 291 290 289 288 288 287 285 285 285 284 284 284 283 283 282 281 281 281 280 279 277
297 307 303 307 305 303 305 307 306 302 304 305 306 306 307 307 307 305 299 293 290 290 291 290 290 289 288 287 285 285 284 284 284 284 284 282 281 280 280 281 280 279 279 276
296 299 301 309 306 304 307 308 307 308 307 307 307 307 307 306 298 296 297 294 292 290 291 291 289 288 287 285 285 285 285 285 284 283 283 281 279 279 280 280 280 278 277 273
297 299 303 306 304 310 310 303 305 305 306 306 306 306 306 305 299 300 301 299 292 290 291 290 288 287 286 285 285 285 285 284 284 283 281 279 278 279 279 280 279 277 273 272
303 303 307 309 310 309 309 306 301 302 307 304 303 304 304 296 292 293 296 295 295 292 291 289 287 286 285 285 285 285 284 284 283 282 280 278 277 278 278 279 278 274 273 271
300 303 309 310 311 313 311 296 294 297 303 306 303 302 302 291 294 299 293 291 291 291 289 287 286 286 285 285 285 285 284 283 282 280 278 276 276 277 278 277 276 275 271 270
303 303 307 310 313 311 308 292 295 303 310 299 300 300 291 294 297 296 293 290 290 289 288 287 286 285 285 285 284 284 283 282 280 278 276 276 275 277 277 276 275 273 270 269
305 304 305 306 310 311 295 291 302 304 297 298 297 297 293 294 293 294 291 289 288 288 286 286 285 285 285 284 284 284 283 281 278 276 275 275 275 276 276 275 275 272 268 267
310 308 309 307 308 301 297 304 299 302 300 295 297 297 296 293 292 290 289 288 288 287 286 285 284 285 284 284 284 283 281 279 277 275 275 274 274 275 276 275 274 272 268 266
303 301 305 301 306 300 296 298 297 298 298 299 298 297 294 293 291 288 289 288 287 286 285 285 285 284 284 283 283 282 281 278 276 274 274 273 273 275 275 275 273 271 267 266
309 301 305 304 304 301 303 302 299 298 297 297 296 295 295 293 290 291 288 288 287 286 284 285 284 284 283 282 282 281 279 277 275 273 272 272 272 274 274 274 273 271 268 267
304 307 306 309 308 307 308 307 303 297 296 296 295 292 293 293 293 289 288 289 287 285 285 285 284 283 283 282 281 279 277 275 274 272 272 271 272 272 273 273 275 273 271 268
Wind_Speed
2 4 5 8 7 3 2 4 7 5 5 5 8 12 21 19 24 24 29 37 39 37 29 26 21 16 13 11 10 13 17 21 24 27 31 34 34 35 36 37 38 39 41 42
4 5 4 1 5 3 4 4 8 10 2 7 9 11 18 9 15 34 37 39 43 37 32 30 24 19 14 12 10 12 18 22 24 27 30 33 36 38 39 41 41 42 43 44
6 2 5 3 3 3 4 5 6 8 7 5 7 5 10 3 18 19 30 37 43 44 38 33 27 21 15 11 11 13 17 21 24 28 31 33 36 39 42 42 44 45 46 47
6 1 5 5 4 7 5 4 3 5 4 4 4 9 5 5 12 10 23 36 43 46 40 35 29 24 16 11 10 13 17 22 26 28 31 32 36 40 41 44 45 47 48 49
7 8 6 6 7 8 8 2 2 3 4 4 4 4 6 2 10 18 16 35 40 47 43 36 31 24 16 10 10 13 19 23 26 28 30 33 35 38 42 44 48 48 50 49
6 1 5 6 2 4 4 2 2 4 2 2 5 8 4 5 8 6 7 30 36 46 43 36 29 21 13 10 10 14 20 23 25 28 29 32 35 39 41 45 49 50 51 52
1 4 1 3 3 2 3 5 4 5 2 7 3 4 12 11 13 10 9 22 36 44 42 37 30 21 14 11 11 14 19 23 25 28 30 32 35 38 42 44 47 49 52 53
5 9 8 6 6 6 6 7 6 7 4 7 1 9 7 7 11 17 20 23 30 41 43 38 30 21 14 11 12 14 19 23 26 29 31 33 35 38 42 43 44 47 50 53
7 7 1 1 1 2 4 5 1 1 2 3 5 8 8 5 8 5 11 23 32 40 44 37 28 20 13 11 11 14 19 23 27 30 32 34 37 39 41 43 45 46 48 52
6 5 1 2 2 4 3 5 4 2 3 7 7 9 14 9 11 5 8 20 28 36 41 34 27 19 13 11 12 16 20 25 28 31 34 36 38 40 43 45 45 46 49 52
5 3 3 4 8 10 2 3 1 3 5 6 3 11 7 8 10 11 15 26 31 40 43 35 26 18 13 12 14 18 23 27 29 32 34 37 40 41 43 45 46 47 50 52
7 5 5 13 1 2 2 10 13 6 7 4 3 21 9 8 9 12 19 28 33 39 40 32 25 18 14 13 15 20 25 27 29 32 35 38 40 42 44 45 46 48 51 52
9 4 2 6 3 2 6 6 6 2 2 18 9 21 4 4 1 16 18 26 33 39 38 31 25 19 15 14 17 21 24 26 29 32 36 38 40 43 45 46 47 49 51 50
21 8 9 17 9 6 6 11 12 16 8 23 28 34 37 27 21 10 20 28 32 36 39 33 26 19 16 14 17 20 22 26 29 33 36 39 41 43 45 46 48 50 49 49
9 15 9 24 20 6 6 15 14 17 28 18 40 30 34 31 30 14 31 30 29 35 41 35 25 19 15 14 16 19 22 26 30 33 36 39 41 43 45 46 48 49 48 47
4 10 6 16 8 6 13 30 19 25 30 26 31 40 40 39 40 32 23 25 30 36 40 30 22 17 13 13 15 18 22 25 29 33 36 39 41 44 44 46 48 48 48 46
9 6 5 22 4 5 13 24 27 29 31 20 28 40 38 29 13 12 17 26 33 37 40 29 22 15 12 11 14 18 22 26 30 33 36 39 40 43 44 45 47 47 48 48
8 6 5 7 4 13 24 4 12 24 26 23 26 32 26 20 7 16 26 31 32 35 36 27 20 14 10 9 13 17 22 26 29 32 35 37 40 42 44 44 46 48 46 46
16 10 8 10 15 23 29 15 8 9 35 14 26 30 27 8 2 10 20 25 30 34 31 24 17 11 8 9 12 17 21 25 28 32 34 36 38 41 42 43 46 46 46 46
13 12 16 12 14 22 33 3 9 8 17 16 20 23 15 13 3 13 23 25 27 30 27 22 16 11 7 7 12 17 21 24 28 31 34 36 36 38 41 42 44 44 43 43
5 8 22 22 21 9 26 9 15 6 22 4 13 13 14 9 10 5 27 31 31 30 26 20 14 9 6 7 10 15 20 24 27 30 32 34 34 36 39 40 41 43 43 43
15 11 8 10 11 20 12 7 16 13 4 10 14 22 25 18 14 16 35 37 35 31 26 20 14 9 6 6 11 15 20 24 26 28 31 32 33 35 37 40 41 41 41 42
14 18 9 12 9 2 25 24 43 23 14 15 23 23 27 28 25 31 41 39 34 29 25 19 14 9 5 7 11 15 20 24 26 28 29 31 32 33 35 38 40 42 41 40
11 6 10 2 25 19 21 30 20 36 27 22 25 28 31 33 31 38 42 39 34 30 26 20 15 9 6 7 11 16 20 24 26 28 29 31 33 34 34 36 36 38 38 40
12 15 19 15 26 5 24 38 40 36 35 24 28 32 30 32 38 41 40 37 33 30 26 20 15 10 7 7 11 15 19 22 24 25 27 29 30 33 35 33 36 33 32 30
11 18 12 15 29 18 33 32 38 36 40 41 38 33 32 35 35 40 37 32 34 31 26 21 16 12 8 7 10 14 17 20 22 23 25 27 30 31 33 35 35 33 31 29
Wind_Direction
39 65 235 230 192 181 207 233 247 246 236 226 237 251 271 227 218 224 216 212 209 210 211 209 211 220 244 276 305 327 339 341 342 342 339 336 338 336 333 330 332 334 334 332
28 230 215 177 143 184 221 272 270 283 245 197 259 247 273 215 225 219 215 212 211 210 205 206 209 219 240 272 305 325 337 340 341 341 339 338 337 335 331 331 333 333 333 334
176 229 132 183 178 202 221 199 246 241 336 278 320 256 246 274 246 239 226 223 220 213 205 205 209 220 242 270 303 321 335 339 339 338 336 335 330 326 328 330 330 329 330 331
229 227 184 213 239 156 277 212 270 292 346 248 41 291 254 252 270 224 221 216 219 216 212 211 209 217 235 265 298 317 335 337 337 336 335 332 328 326 327 325 326 329 329 327
242 170 194 211 218 161 224 109 215 219 246 332 226 248 256 57 275 260 216 220 217 219 212 208 209 218 231 256 292 318 330 335 333 335 332 328 325 324 323 325 325 325 323 325
246 181 181 214 143 167 112 21 52 55 78 286 225 191 234 204 218 257 219 218 212 218 209 209 211 218 234 267 297 317 326 330 333 331 328 327 325 323 324 325 323 324 323 324
289 218 217 180 147 88 102 70 321 324 339 237 145 234 252 248 251 237 230 215 219 214 205 203 207 217 237 268 297 315 323 329 330 328 326 324 323 324 324 324 324 324 323 322
207 278 175 182 207 179 171 165 166 247 240 286 200 245 249 237 276 276 270 252 226 211 206 205 209 220 241 271 295 311 320 326 325 324 322 322 323 324 323 324 323 321 320 321
176 266 128 199 97 131 170 183 160 54 99 341 240 286 291 289 280 276 224 212 211 209 206 205 209 222 242 266 290 308 317 320 321 321 322 323 323 323 322 322 323 322 321 320
209 285 152 122 117 26 148 158 85 14 272 265 264 274 247 245 262 195 222 215 211 210 206 206 212 223 242 266 289 307 313 319 322 321 322 324 325 326 325 325 325 323 322 320
135 154 205 128 207 175 126 221 158 149 171 204 297 269 202 214 219 205 214 218 214 211 206 206 213 222 240 265 292 306 315 320 321 322 324 326 326 326 327 325 325 325 322 319
201 156 210 214 355 9 230 200 182 197 231 241 143 261 166 196 236 185 215 221 225 218 210 211 215 225 243 267 291 308 315 319 322 324 326 327 328 328 327 328 328 325 322 320
174 217 291 318 13 353 223 208 218 46 104 234 216 261 67 354 277 212 220 223 228 223 214 211 213 226 240 270 297 308 315 320 323 326 327 329 330 329 329 330 328 327 324 318
167 186 181 233 221 127 186 215 208 214 234 252 241 262 268 269 263 231 234 236 231 226 214 211 214 225 244 277 296 308 317 323 326 329 331 331 331 330 330 331 330 327 325 321
179 236 194 246 250 174 221 234 191 208 230 235 263 262 267 269 270 258 246 237 215 210 207 208 211 223 247 277 295 310 320 326 329 331 332 332 331 330 333 332 331 330 327 324
180 241 173 255 230 201 264 257 238 230 247 249 258 265 266 268 281 277 252 217 200 202 203 200 211 225 252 279 300 314 323 327 330 330 333 333 333 333 335 334 333 331 330 328
165 172 150 250 183 80 272 257 239 247 245 234 246 251 264 276 248 238 238 222 208 203 202 201 211 223 249 279 303 317 324 329 331 332 332 332 335 334 336 336 335 336 336 331
184 180 158 246 115 233 260 173 202 223 253 229 243 255 254 258 258 256 247 236 214 205 198 198 203 218 244 282 308 320 327 331 332 331 331 333 336 335 336 337 338 342 336 331
204 188 218 224 231 257 286 236 188 194 273 208 227 246 253 219 173 250 226 228 223 208 193 193 197 210 247 289 312 324 329 331 332 331 332 336 337 337 337 341 344 341 339 336
207 232 223 215 235 242 252 117 137 119 268 265 211 232 234 136 212 252 205 200 195 184 185 186 191 208 244 292 317 327 331 333 334 334 335 337 340 340 340 347 344 343 344 338
181 207 222 228 239 243 257 153 150 167 258 110 190 210 153 189 214 191 184 178 180 179 182 186 191 205 249 296 320 328 332 336 337 335 337 339 343 343 347 347 347 347 345 344
188 181 206 229 241 248 136 109 187 223 157 187 195 192 183 188 178 186 179 177 178 180 182 185 189 206 246 300 320 329 334 337 338 338 339 341 346 350 350 350 351 351 349 346
220 210 207 206 214 160 182 216 214 225 206 197 198 198 196 185 180 181 179 179 181 183 183 185 194 208 243 294 318 329 335 337 340 340 341 345 353 354 355 356 355 355 354 349
226 178 230 147 246 238 218 222 228 214 218 213 210 204 196 190 182 179 179 181 183 186 186 189 196 209 240 289 319 328 335 338 341 342 346 352 353 356 359 359 3 360 357 352
200 151 215 243 265 318 256 229 225 220 219 214 208 205 200 190 183 183 182 185 188 187 189 192 198 211 243 288 315 326 335 338 341 345 352 354 356 358 358 4 6 5 3 352
185 206 193 225 237 216 251 232 221 214 216 217 207 198 193 193 195 189 188 192 191 189 191 195 202 212 237 280 310 326 338 340 342 348 355 356 359 360 359 359 3 16 16 5